Ionia, MI

3:47 AM EST on November 25, 2017 (GMT -0500)
Ionia

Weather History for KY70 - March, 2013

Change the Weather History Date:

Sunday, March 17, 2013

  Actual Average (KGRR) Record (KGRR)
Temperature  
Mean Temperature 24 °F -  
Max Temperature 28 °F 42 °F 78 °F (2012)
Min Temperature 20 °F 23 °F -4 °F (1949)
Degree Days  
Heating Degree Days 41    
Moisture  
Dew Point 16 °F    
Average Humidity 71    
Maximum Humidity 86    
Minimum Humidity 54    
Precipitation  
Precipitation 0.00 in - - ()
Sea Level Pressure  
Sea Level Pressure 30.17 in    
Wind  
Wind Speed 8 mph (NE)    
Max Wind Speed 15 mph    
Max Gust Speed 20 mph    
Visibility 10 miles    
Events Snow    
Averages and records for this station are not official NWS values.
T = Trace of Precipitation, MM = Missing Value Source: NWS Daily Summary

Daily Weather History Graph

Daily Weather History Graph

Search for Another Location

Airport or City:

Trip Planner

Search our weather history database for the weather conditions in past years. The results will help you decide how hot, cold, wet, or windy it might be!

Date:

Astronomy

Mar. 17, 2013 Rise Set
Actual Time 7:48 AM EDT 7:49 PM EDT
Civil Twilight 7:20 AM EDT 8:17 PM EDT
Nautical Twilight 6:47 AM EDT 8:50 PM EDT
Astronomical Twilight 6:13 AM EDT 9:24 PM EDT
Moon 10:52 AM EDT (3/17) 1:04 AM EDT (3/17)
Length of Visible Light 12h 57m
Length of Day
12h 00m
Waxing Crescent, 31% of the Moon is Illuminated
Mar 17
Waxing Crescent
Mar 19
First Quarter
Mar 27
Full
Apr 3
Last Quarter
Apr 10
New

Hourly Weather History & Observations

Time (EDT) Temp. Windchill Dew Point Humidity Pressure Visibility Wind Dir Wind Speed Gust Speed Precip Events Conditions
12:14 AM 25.2 °F 18.3 °F 18.3 °F 75% 30.04 in 10.0 mi NW 5.8 mph - N/A   Clear
12:34 AM 24.3 °F 17.3 °F 18.1 °F 77% 30.05 in 10.0 mi WNW 5.8 mph - N/A   Clear
12:54 AM 24.4 °F 17.5 °F 18.3 °F 78% 30.06 in 10.0 mi WNW 5.8 mph - N/A   Mostly Cloudy
1:14 AM 24.1 °F 17.0 °F 18.3 °F 79% 30.05 in 10.0 mi WNW 5.8 mph - N/A   Scattered Clouds
1:34 AM 23.9 °F 16.8 °F 18.1 °F 79% 30.06 in 10.0 mi WNW 5.8 mph - N/A   Clear
1:54 AM 24.6 °F 20.3 °F 18.5 °F 78% 30.07 in 10.0 mi West 3.5 mph - N/A   Scattered Clouds
2:14 AM 22.8 °F 16.7 °F 17.6 °F 80% 30.07 in 10.0 mi West 4.6 mph - N/A   Scattered Clouds
2:34 AM 23.2 °F 17.2 °F 18.5 °F 82% 30.08 in 10.0 mi West 4.6 mph - N/A   Mostly Cloudy
2:54 AM 24.6 °F 20.3 °F 19.4 °F 81% 30.08 in 10.0 mi West 3.5 mph - N/A   Overcast
3:14 AM 26.1 °F 21.9 °F 19.4 °F 76% 30.08 in 10.0 mi WNW 3.5 mph - N/A   Overcast
3:34 AM 26.1 °F 21.9 °F 19.6 °F 76% 30.08 in 10.0 mi NW 3.5 mph - N/A   Overcast
3:54 AM 26.6 °F 20.0 °F 20.8 °F 79% 30.08 in 10.0 mi WNW 5.8 mph - N/A   Overcast
4:14 AM 26.6 °F 20.0 °F 20.7 °F 78% 30.09 in 10.0 mi NW 5.8 mph - N/A   Overcast
4:34 AM 26.2 °F 20.7 °F 20.8 °F 80% 30.09 in 10.0 mi NW 4.6 mph - N/A   Overcast
4:54 AM 25.7 °F 21.5 °F 20.3 °F 80% 30.09 in 10.0 mi NW 3.5 mph - N/A   Overcast
5:14 AM 24.8 °F 19.1 °F 19.4 °F 80% 30.09 in 10.0 mi NNW 4.6 mph - N/A   Scattered Clouds
5:54 AM 23.0 °F 15.8 °F 19.4 °F 86% 30.10 in 10.0 mi North 5.8 mph - N/A   Scattered Clouds
6:14 AM 24.8 °F 14.0 °F 18.1 °F 76% 30.11 in 10.0 mi North 11.5 mph - N/A   Scattered Clouds
6:34 AM 24.8 °F 15.3 °F 18.3 °F 76% 30.12 in 10.0 mi North 9.2 mph - N/A   Overcast
6:54 AM 24.4 °F 13.5 °F 18.3 °F 78% 30.14 in 10.0 mi NNE 11.5 mph 16.1 mph N/A   Overcast
7:14 AM 23.0 °F 13.9 °F 17.6 °F 80% 30.15 in 10.0 mi NNE 8.1 mph - N/A   Mostly Cloudy
7:34 AM 22.6 °F 13.4 °F 16.7 °F 78% 30.15 in 10.0 mi NNE 8.1 mph - N/A   Clear
7:54 AM 21.6 °F 14.0 °F 15.8 °F 78% 30.17 in 10.0 mi NNE 5.8 mph - N/A   Clear
8:14 AM 20.7 °F 14.2 °F 15.4 °F 80% 30.18 in 10.0 mi NNE 4.6 mph - N/A   Clear
8:34 AM 20.8 °F 14.4 °F 15.3 °F 79% 30.20 in 10.0 mi NNE 4.6 mph - N/A   Clear
8:54 AM 22.6 °F 16.5 °F 16.2 °F 76% 30.20 in 10.0 mi NNE 4.6 mph - N/A   Scattered Clouds
9:14 AM 23.9 °F 16.8 °F 15.6 °F 71% 30.21 in 10.0 mi NNE 5.8 mph - N/A   Clear
9:34 AM 24.6 °F 15.8 °F 14.7 °F 66% 30.23 in 10.0 mi NNE 8.1 mph - N/A   Clear
9:54 AM 25.3 °F 15.3 °F 15.1 °F 65% 30.23 in 10.0 mi NE 10.4 mph 16.1 mph N/A   Scattered Clouds
10:14 AM 23.9 °F 13.5 °F 14.4 °F 67% 30.24 in 10.0 mi NE 10.4 mph 16.1 mph N/A   Mostly Cloudy
10:34 AM 24.8 °F 15.3 °F 14.5 °F 65% 30.24 in 10.0 mi East 9.2 mph - N/A   Overcast
10:54 AM 25.0 °F 14.2 °F 14.5 °F 65% 30.24 in 10.0 mi ENE 11.5 mph - N/A   Overcast
11:14 AM 25.0 °F 15.5 °F 16.7 °F 71% 30.24 in 10.0 mi East 9.2 mph - N/A   Overcast
11:34 AM 24.8 °F 14.0 °F 17.4 °F 74% 30.25 in 7.0 mi East 11.5 mph - N/A Snow Light Snow
11:54 AM 25.0 °F 14.8 °F 16.9 °F 71% 30.25 in 10.0 mi East 10.4 mph - N/A Snow Light Snow
12:14 PM 25.3 °F 16.0 °F 15.4 °F 66% 30.26 in 10.0 mi East 9.2 mph - N/A   Overcast
12:34 PM 25.9 °F 15.3 °F 15.3 °F 64% 30.25 in 10.0 mi East 11.5 mph 16.1 mph N/A   Overcast
12:54 PM 26.2 °F 17.8 °F 14.9 °F 62% 30.26 in 10.0 mi East 8.1 mph - N/A   Overcast
1:14 PM 26.6 °F 17.5 °F 14.7 °F 61% 30.26 in 10.0 mi ESE 9.2 mph - N/A   Mostly Cloudy
1:34 PM 27.0 °F 17.3 °F 14.0 °F 58% 30.26 in 10.0 mi ENE 10.4 mph 17.3 mph N/A   Scattered Clouds
1:54 PM 26.8 °F 17.7 °F 13.6 °F 58% 30.25 in 10.0 mi ENE 9.2 mph - N/A   Scattered Clouds
2:14 PM 27.0 °F 15.2 °F 14.2 °F 59% 30.25 in 10.0 mi ESE 15.0 mph - N/A   Clear
2:34 PM 27.1 °F 16.4 °F 15.3 °F 61% 30.25 in 10.0 mi East 12.7 mph - N/A   Clear
2:54 PM 27.3 °F 19.1 °F 14.7 °F 59% 30.24 in 10.0 mi East 8.1 mph - N/A   Clear
3:14 PM 27.5 °F 17.4 °F 14.2 °F 57% 30.23 in 10.0 mi East 11.5 mph 16.1 mph N/A   Clear
3:34 PM 27.3 °F 16.6 °F 13.1 °F 55% 30.22 in 10.0 mi East 12.7 mph 18.4 mph N/A   Clear
4:14 PM 27.5 °F 16.3 °F 12.7 °F 54% 30.20 in 10.0 mi East 13.8 mph - N/A   Clear
4:34 PM 28.0 °F 17.0 °F 13.6 °F 55% 30.20 in 10.0 mi East 13.8 mph - N/A   Clear
4:54 PM 28.0 °F 18.1 °F 13.8 °F 55% 30.19 in 10.0 mi East 11.5 mph - N/A   Clear
5:14 PM 27.3 °F 17.1 °F 13.6 °F 56% 30.19 in 10.0 mi ENE 11.5 mph 17.3 mph N/A   Clear
5:34 PM 27.5 °F 17.4 °F 14.2 °F 57% 30.19 in 10.0 mi East 11.5 mph - N/A   Clear
5:54 PM 28.2 °F 18.9 °F 15.1 °F 58% 30.19 in 10.0 mi ENE 10.4 mph - N/A   Clear
6:14 PM 27.5 °F 18.0 °F 14.9 °F 59% 30.19 in 10.0 mi East 10.4 mph 17.3 mph N/A   Clear
6:34 PM 27.5 °F 18.6 °F 15.3 °F 60% 30.19 in 10.0 mi ENE 9.2 mph - N/A   Clear
6:54 PM 27.0 °F 17.3 °F 15.4 °F 62% 30.19 in 10.0 mi ENE 10.4 mph - N/A   Clear
7:14 PM 26.6 °F 17.5 °F 15.6 °F 63% 30.19 in 10.0 mi ENE 9.2 mph - N/A   Clear
7:34 PM 25.7 °F 17.1 °F 16.3 °F 68% 30.19 in 10.0 mi ENE 8.1 mph - N/A   Clear
7:54 PM 25.7 °F 15.7 °F 16.0 °F 67% 30.19 in 7.0 mi ENE 10.4 mph - N/A   Clear
8:14 PM 24.8 °F 14.6 °F 16.3 °F 70% 30.19 in 10.0 mi ENE 10.4 mph - N/A   Clear
8:34 PM 24.6 °F 14.4 °F 16.7 °F 72% 30.19 in 10.0 mi ENE 10.4 mph - N/A   Clear
8:54 PM 24.4 °F 14.9 °F 17.1 °F 73% 30.19 in 10.0 mi ENE 9.2 mph - N/A   Clear
9:14 PM 24.4 °F 14.2 °F 17.1 °F 73% 30.18 in 10.0 mi ENE 10.4 mph - N/A   Clear
9:34 PM 23.9 °F 12.9 °F 17.2 °F 76% 30.18 in 10.0 mi East 11.5 mph - N/A   Clear
9:54 PM 23.7 °F 11.5 °F 17.1 °F 76% 30.18 in 10.0 mi East 13.8 mph 19.6 mph N/A   Clear
10:14 PM 23.4 °F 12.8 °F 16.7 °F 76% 30.17 in 10.0 mi East 10.4 mph - N/A   Clear
10:34 PM 23.0 °F 12.4 °F 16.7 °F 77% 30.16 in 10.0 mi East 10.4 mph - N/A   Clear
10:54 PM 22.8 °F 12.2 °F 16.7 °F 77% 30.16 in 10.0 mi East 10.4 mph - N/A   Clear
11:14 PM 22.8 °F 11.5 °F 16.7 °F 77% 30.15 in 10.0 mi East 11.5 mph 18.4 mph N/A   Clear
11:34 PM 22.8 °F 12.2 °F 16.7 °F 77% 30.15 in 10.0 mi East 10.4 mph - N/A   Clear
11:54 PM 22.8 °F 10.9 °F 16.7 °F 77% 30.14 in 10.0 mi East 12.7 mph 16.1 mph N/A   Clear